Craig, CO

1:28 AM MDT on May 25, 2017 (GMT -0600)
Craig-Moffat

Weather History for KCAG - March, 2014

Change the Weather History Date:

Thursday, March 13, 2014

  Actual Average Record
Temperature  
Mean Temperature 34 °F 31 °F  
Max Temperature 53 °F 44 °F 61 °F (2015)
Min Temperature 15 °F 18 °F 8 °F (2006)
Degree Days  
Heating Degree Days 31 34  
Month to date heating degree days 477  
Since 1 July heating degree days 6803  
Cooling Degree Days 0 0  
Month to date cooling degree days 0  
Year to date cooling degree days 0  
Moisture  
Dew Point 16 °F    
Average Humidity 53    
Maximum Humidity 84    
Minimum Humidity 13    
Precipitation  
Precipitation 0.00 in 0.04 in 0.12 in (2008)
Month to date precipitation 0.45  
Year to date precipitation 2.15  
Sea Level Pressure  
Sea Level Pressure 30.15 in    
Wind  
Wind Speed 4 mph (WSW)    
Max Wind Speed 23 mph    
Max Gust Speed 31 mph    
Visibility 10 miles    
Events      
T = Trace of Precipitation, MM = Missing Value Source: NWS Daily Summary

Daily Weather History Graph

Daily Weather History Graph

Search for Another Location

Airport or City:

Trip Planner

Search our weather history database for the weather conditions in past years. The results will help you decide how hot, cold, wet, or windy it might be!

Date:

Astronomy

Mar. 13, 2014 Rise Set
Actual Time 7:24 AM MDT 7:14 PM MDT
Civil Twilight 6:57 AM MDT 7:42 PM MDT
Nautical Twilight 6:26 AM MDT 8:13 PM MDT
Astronomical Twilight 5:54 AM MDT 8:45 PM MDT
Moon 4:43 PM MDT (3/13) 5:33 AM MDT (3/13)
Length of Visible Light 12h 44m
Length of Day
11h 50m
Waxing Gibbous, 92% of the Moon is Illuminated
Mar 13
Waxing Gibbous
Mar 16
Full
Mar 23
Last Quarter
Mar 30
New
Apr 7
First Quarter

Hourly Weather History & Observations

Time (MDT) Temp. Windchill Dew Point Humidity Pressure Visibility Wind Dir Wind Speed Gust Speed Precip Events Conditions
12:53 AM 19.9 °F - 15.1 °F 81% 30.34 in 10.0 mi Calm Calm - N/A   Clear
1:53 AM 19.0 °F - 14.0 °F 81% 30.32 in 10.0 mi Calm Calm - N/A   Clear
2:53 AM 18.0 °F - 14.0 °F 84% 30.31 in 10.0 mi Calm Calm - N/A   Clear
3:53 AM 19.0 °F - 14.0 °F 81% 30.27 in 10.0 mi Calm Calm - N/A   Clear
4:53 AM 18.0 °F - 12.9 °F 81% 30.26 in 10.0 mi Calm Calm - N/A   Clear
5:53 AM 17.1 °F 11.7 °F 12.9 °F 84% 30.26 in 10.0 mi SW 3.5 mph - N/A   Clear
6:53 AM 15.1 °F - 10.9 °F 84% 30.28 in 10.0 mi Calm Calm - N/A   Clear
7:53 AM 17.1 °F - 12.0 °F 81% 30.29 in 10.0 mi Calm Calm - N/A   Clear
8:53 AM 24.1 °F - 17.1 °F 75% 30.26 in 10.0 mi Calm Calm - N/A   Clear
9:53 AM 33.1 °F 27.7 °F 17.1 °F 52% 30.22 in 10.0 mi ENE 5.8 mph - N/A   Clear
10:53 AM 39.9 °F 33.4 °F 16.0 °F 38% 30.16 in 10.0 mi ENE 10.4 mph - N/A   Clear
11:53 AM 44.1 °F 42.5 °F 15.1 °F 31% 30.13 in 7.0 mi Variable 3.5 mph - N/A   Clear
12:53 PM 48.9 °F - 18.0 °F 29% 30.09 in 10.0 mi West 13.8 mph - N/A   Clear
1:53 PM 51.1 °F - 17.1 °F 26% 30.04 in 10.0 mi West 18.4 mph 26.5 mph N/A   Clear
2:53 PM 53.1 °F - 17.1 °F 24% 30.01 in 10.0 mi West 23.0 mph 31.1 mph N/A   Clear
3:53 PM 52.0 °F - 17.1 °F 25% 29.99 in 10.0 mi West 20.7 mph 29.9 mph N/A   Clear
4:53 PM 52.0 °F - 16.0 °F 24% 29.99 in 10.0 mi WSW 19.6 mph 31.1 mph N/A   Clear
5:53 PM 51.1 °F - 16.0 °F 25% 29.99 in 10.0 mi WSW 16.1 mph - N/A   Clear
6:53 PM 46.9 °F - 16.0 °F 29% 30.02 in 10.0 mi WSW 12.7 mph - N/A   Clear
7:53 PM 37.0 °F 29.3 °F 21.0 °F 52% 30.07 in 10.0 mi SSW 11.5 mph - N/A   Clear
8:53 PM 35.1 °F - 21.0 °F 57% 30.07 in 10.0 mi Calm Calm - N/A   Clear
9:53 PM 32.0 °F 24.2 °F 21.0 °F 64% 30.06 in 10.0 mi SW 9.2 mph - N/A   Clear
10:53 PM 30.0 °F 26.5 °F 21.0 °F 69% 30.07 in 10.0 mi NE 3.5 mph - N/A   Clear
11:53 PM 28.9 °F - 19.9 °F 69% 30.06 in 10.0 mi Calm Calm - N/A   Clear